Weather Roundup
Issued by NWS Chicago, IL

Home | Current Version | Previous Version | Text Only | Print | Product List | Glossary On
Versions: 1 2 3 4 5 6 7 8 9 10 11 12 13 14 15 16 17 18 19 20 21 22 23 24 25 26 27 28 29 30 31 32 33 34 35 36 37 38 39 40 41 42 43 44 45 46 47 48 49 50
000
NZUS59 KLOT 210408
HRRLOT

CHICAGO AREA WEATHER ROUNDUP
NATIONAL WEATHER SERVICE CHICAGO/ROMEOVILLE IL
1100 PM CDT FRI APR 20 2018

NOTE: "FAIR" INDICATES FEW OR NO CLOUDS BELOW 12,000 FEET WITH NO
SIGNIFICANT WEATHER AND/OR OBSTRUCTIONS TO VISIBILITY.

* THESE STATIONS ARE NOT UNDER NWS QUALITY CONTROL. THEY ALSO MAY NOT
  REPORT WEATHER SUCH AS PRECIPITATION OR FOG.

ILZ005-006-012>014-019>023-210500-
NORTHEAST ILLINOIS

CITY           SKY/WX    TMP DP  RH WIND       PRES   REMARKS
OHARE          MOCLDY    46  14  27 E3        30.43F
MIDWAY         MOCLDY    47  16  29 E5        30.44F
AURORA           N/A     41  22  46 NE6       30.43S
LANSING*         N/A     41  25  53 CALM      30.44F
JOLIET*          N/A     48  15  27 NE5       30.43S
WAUKEGAN         N/A     31  23  72 CALM      30.44S
DUPAGE AIRPORT   N/A     43  16  33 CALM      30.43S
WHEELING         N/A     42  20  41 CALM      30.46F
KANKAKEE*        N/A     43  21  41 E5        30.43F
MORRIS*          N/A     43  23  44 NE3       30.43S
LEWIS AIRPORT*   N/A     41  19  42 NE8       30.43S
NORTHERLY ISL    N/A     42  22  45 N1          N/A
$$

WIZ051-052-058>065-066-070>072-210500-
SOUTHEAST WISCONSIN

CITY           SKY/WX    TMP DP  RH WIND       PRES   REMARKS
MILWAUKEE        N/A     42  16  34 CALM      30.45S
KENOSHA*         N/A     37  19  48 CALM      30.44F
RACINE*          N/A     36  22  56 SW3       30.46S
BURLINGTON       N/A     33  25  72 CALM      30.44F
WAUKESHA         N/A     34  21  60 CALM      30.46S
WEST BEND        N/A     32  23  69 CALM      30.44F
$$

INZ001>003-010>013-019-020-210500-
NORTHWEST INDIANA

CITY           SKY/WX    TMP DP  RH WIND       PRES   REMARKS
GARY*            N/A     36  28  71 CALM      30.45S
MICHIGAN CITY* NOT AVBL
RENSSELAER*    NOT AVBL
VALPARAISO       N/A     39  16  39 NE6       30.44F
$$

LMZ740>746-210500-
SOUTHERN LAKE MICHIGAN

STATION/POSITION TIME  SKY/WX   TEMP WIND        PRES    VSBY
                                AIR  DIR/SP/G
                 (UTC)          (F)  (DEG/KT/KT) (MB)    (MI)
HARRISON CRIB    0340            43   50/  1/  1   N/A
BURNHAM HARBOR   0400            41   60/  1/  2   N/A
CALUMET HARBOR   0348            38   30/  2/  3 1030.2F
BURNS HARBOR     0340            44   80/  7/  8 1031.2S
MICHIGAN CITY    0340            43   70/  5/  6   N/A
$$

ABBREVIATIONS USED IN REMARKS
   TC - TEMPERATURE IN CELSIUS
  WCI - WIND CHILL INDEX
   HX - HEAT INDEX
  VSB - VISIBILITY
$$




USA.gov is the U.S. government's official web portal to all federal, state and local government web resources and services.